When you browse on this site, cookies collect data to enhance your experience and personalize the content and advertising you see.
Visit our Privacy Policy to learn more. By continuing to use the site, you agree to this use of cookies and data.
  • In Belgium
  • List of Countries
  • For 7 days
  • Water Temperature
  • Satellite Maps
  • Weather Map
  • Weather Widgets
  • user-avatar
    Login

    Hourly Weather Fier

    Today, 21 November, Wednesday

    Time Temperature Precipitation Wind Pressure Humidity
    00:00 +15°C° 2.7 mm 6 mps 755 mmHg 91%
    01:00 +14°C° 0 mm 3 mps 755 mmHg 94%
    02:00 +14°C° 2 mm 3 mps 755 mmHg 93%
    03:00 +14°C° 2 mm 3 mps 755 mmHg 92%
    04:00 +14°C° 2 mm 3 mps 755 mmHg 91%
    05:00 +14°C° 0.7 mm 3 mps 755 mmHg 90%
    06:00 +14°C° 0.7 mm 3 mps 755 mmHg 90%
    07:00 +14°C° 0 mm 3 mps 755 mmHg 91%
    08:00 +16°C° 0.3 mm 3 mps 756 mmHg 84%
    09:00 +17°C° 0.3 mm 3 mps 756 mmHg 78%
    10:00 +18°C° 0.3 mm 3 mps 756 mmHg 72%
    11:00 +18°C° 0.5 mm 3 mps 757 mmHg 70%
    12:00 +19°C° 0.5 mm 3 mps 757 mmHg 68%
    13:00 +19°C° 0.5 mm 4 mps 757 mmHg 66%
    14:00 +18°C° 0.6 mm 4 mps 757 mmHg 71%
    15:00 +17°C° 0.6 mm 4 mps 757 mmHg 76%
    16:00 +17°C° 0.6 mm 4 mps 758 mmHg 81%
    17:00 +15°C° 0.5 mm 4 mps 758 mmHg 84%
    18:00 +14°C° 0.5 mm 4 mps 758 mmHg 87%
    19:00 +14°C° 0.5 mm 4 mps 759 mmHg 90%
    20:00 +13°C° 0.1 mm 3 mps 759 mmHg 90%
    21:00 +13°C° 0.1 mm 3 mps 760 mmHg 90%
    22:00 +13°C° 0.1 mm 3 mps 760 mmHg 90%
    23:00 +13°C° 0.1 mm 3 mps 760 mmHg 90%

    Tomorrow, 22 November, Thursday

    Time Temperature Precipitation Wind Pressure Humidity
    00:00 +13°C° 0.1 mm 3 mps 760 mmHg 90%
    01:00 +14°C° 0.1 mm 2 mps 761 mmHg 91%
    02:00 +14°C° 0.1 mm 2 mps 761 mmHg 91%
    03:00 +13°C° 0.1 mm 2 mps 761 mmHg 91%
    04:00 +13°C° 0.1 mm 2 mps 761 mmHg 90%
    05:00 +13°C° 0 mm 2 mps 761 mmHg 90%
    06:00 +13°C° 0 mm 2 mps 761 mmHg 89%
    07:00 +13°C° 0 mm 2 mps 761 mmHg 89%
    08:00 +15°C° 0 mm 2 mps 762 mmHg 82%
    09:00 +16°C° 0 mm 2 mps 762 mmHg 76%
    10:00 +19°C° 0 mm 1 mps 762 mmHg 69%
    11:00 +18°C° 0.1 mm 2 mps 762 mmHg 67%
    12:00 +18°C° 0.1 mm 2 mps 762 mmHg 64%
    13:00 +19°C° 0.1 mm 2 mps 762 mmHg 61%
    14:00 +18°C° 0.1 mm 2 mps 762 mmHg 66%
    15:00 +17°C° 0.1 mm 2 mps 762 mmHg 71%
    16:00 +16°C° 0.1 mm 2 mps 762 mmHg 76%
    17:00 +16°C° 0.1 mm 2 mps 763 mmHg 79%
    18:00 +15°C° 0.1 mm 2 mps 763 mmHg 83%
    19:00 +14°C° 0.1 mm 1 mps 763 mmHg 86%
    20:00 +14°C° 0 mm 1 mps 764 mmHg 86%
    21:00 +14°C° 0 mm 1 mps 764 mmHg 85%
    22:00 +13°C° 0 mm 1 mps 764 mmHg 85%
    23:00 +13°C° 0 mm 1 mps 764 mmHg 84%

    Day after tomorrow, 23 November, Friday

    Time Temperature Precipitation Wind Pressure Humidity
    00:00 +13°C° 0 mm 2 mps 765 mmHg 83%
    01:00 +13°C° 0 mm 2 mps 765 mmHg 82%
    02:00 +13°C° 0 mm 2 mps 765 mmHg 81%
    03:00 +12°C° 0 mm 2 mps 765 mmHg 80%
    04:00 +12°C° 0 mm 2 mps 765 mmHg 80%
    05:00 +12°C° 0 mm 2 mps 765 mmHg 79%
    06:00 +12°C° 0 mm 2 mps 766 mmHg 79%
    07:00 +12°C° 0 mm 2 mps 766 mmHg 78%
    08:00 +14°C° 0 mm 2 mps 766 mmHg 73%
    09:00 +16°C° 0 mm 2 mps 766 mmHg 67%
    10:00 +18°C° 0 mm 1 mps 767 mmHg 61%
    11:00 +18°C° 0 mm 2 mps 766 mmHg 58%
    12:00 +19°C° 0 mm 2 mps 766 mmHg 55%
    13:00 +19°C° 0 mm 2 mps 766 mmHg 52%
    14:00 +18°C° 0 mm 2 mps 766 mmHg 56%
    15:00 +17°C° 0 mm 2 mps 765 mmHg 61%
    16:00 +16°C° 0 mm 2 mps 765 mmHg 65%
    17:00 +16°C° 0 mm 2 mps 766 mmHg 68%
    18:00 +15°C° 0 mm 2 mps 766 mmHg 70%
    19:00 +14°C° 0 mm 2 mps 766 mmHg 72%
    20:00 +14°C° 0 mm 2 mps 766 mmHg 73%
    21:00 +14°C° 0 mm 2 mps 766 mmHg 73%
    22:00 +13°C° 0 mm 2 mps 767 mmHg 74%
    23:00 +13°C° 0 mm 2 mps 766 mmHg 74%

    24 November, Saturday

    Time Temperature Precipitation Wind Pressure Humidity
    00:00 +13°C° 0 mm 2 mps 766 mmHg 74%
    01:00 +13°C° 0 mm 2 mps 766 mmHg 75%
    02:00 +12°C° 0 mm 2 mps 766 mmHg 75%
    03:00 +11°C° 0 mm 3 mps 766 mmHg 74%
    04:00 +11°C° 0 mm 3 mps 765 mmHg 74%
    05:00 +11°C° 0 mm 3 mps 765 mmHg 73%
    06:00 +11°C° 0 mm 3 mps 765 mmHg 72%
    07:00 +11°C° 0 mm 4 mps 765 mmHg 71%
    08:00 +13°C° 0 mm 4 mps 765 mmHg 66%
    09:00 +15°C° 0 mm 4 mps 765 mmHg 61%
    10:00 +17°C° 0 mm 4 mps 765 mmHg 57%
    11:00 +18°C° 0 mm 4 mps 765 mmHg 56%
    12:00 +17°C° 0 mm 5 mps 764 mmHg 56%
    13:00 +19°C° 0 mm 5 mps 764 mmHg 55%
    14:00 +17°C° 0.1 mm 5 mps 763 mmHg 60%
    15:00 +16°C° 0.1 mm 5 mps 763 mmHg 64%
    16:00 +15°C° 0.1 mm 5 mps 763 mmHg 69%
    17:00 +15°C° 0.2 mm 5 mps 763 mmHg 70%
    18:00 +15°C° 0.2 mm 5 mps 763 mmHg 72%
    19:00 +14°C° 0.2 mm 5 mps 763 mmHg 73%
    20:00 +14°C° 0.1 mm 5 mps 763 mmHg 75%
    21:00 +14°C° 0.1 mm 5 mps 763 mmHg 77%
    22:00 +13°C° 0.1 mm 5 mps 763 mmHg 78%
    23:00 +13°C° 0 mm 5 mps 763 mmHg 79%

    25 November, Sunday

    Time Temperature Precipitation Wind Pressure Humidity
    00:00 +13°C° 0 mm 5 mps 763 mmHg 81%
    01:00 +12°C° 0 mm 5 mps 762 mmHg 82%
    02:00 +12°C° 0 mm 5 mps 762 mmHg 82%
    03:00 +12°C° 0 mm 5 mps 762 mmHg 82%
    04:00 +12°C° 0 mm 5 mps 761 mmHg 82%
    05:00 +12°C° 0 mm 5 mps 761 mmHg 83%
    06:00 +12°C° 0 mm 5 mps 761 mmHg 83%
    07:00 +12°C° 0 mm 5 mps 761 mmHg 84%
    08:00 +14°C° 0 mm 5 mps 761 mmHg 78%
    09:00 +16°C° 0 mm 5 mps 761 mmHg 73%
    10:00 +19°C° 0 mm 5 mps 760 mmHg 67%
    11:00 +19°C° 0.1 mm 5 mps 760 mmHg 66%
    12:00 +19°C° 0.1 mm 5 mps 759 mmHg 65%
    13:00 +20°C° 0.1 mm 5 mps 758 mmHg 63%
    14:00 +19°C° 1 mm 5 mps 758 mmHg 70%
    15:00 +17°C° 1 mm 5 mps 758 mmHg 76%
    16:00 +17°C° 1 mm 4 mps 757 mmHg 82%
    17:00 +17°C° 2.9 mm 4 mps 757 mmHg 83%
    18:00 +15°C° 2.9 mm 4 mps 757 mmHg 85%
    19:00 +15°C° 2.9 mm 4 mps 756 mmHg 86%
    20:00 +15°C° 2.7 mm 5 mps 756 mmHg 86%
    21:00 +15°C° 2.7 mm 5 mps 755 mmHg 86%
    22:00 +15°C° 2.7 mm 6 mps 755 mmHg 86%
    23:00 +15°C° 4.4 mm 5 mps 754 mmHg 86%

    26 November, Monday

    Time Temperature Precipitation Wind Pressure Humidity
    00:00 +15°C° 4.4 mm 5 mps 754 mmHg 86%
    01:00 +15°C° 4.4 mm 5 mps 753 mmHg 86%
    02:00 +15°C° 1.4 mm 4 mps 753 mmHg 87%
    03:00 +15°C° 1.4 mm 4 mps 753 mmHg 87%
    04:00 +15°C° 1.4 mm 4 mps 753 mmHg 87%
    05:00 +16°C° 0.6 mm 3 mps 753 mmHg 90%
    06:00 +16°C° 0.6 mm 3 mps 753 mmHg 93%
    07:00 +14°C° 0.6 mm 3 mps 753 mmHg 95%
    08:00 +14°C° 0.9 mm 3 mps 753 mmHg 95%
    09:00 +14°C° 0.9 mm 3 mps 753 mmHg 95%
    10:00 +14°C° 0.9 mm 3 mps 754 mmHg 94%
    11:00 +14°C° 1 mm 3 mps 754 mmHg 94%
    12:00 +14°C° 1 mm 4 mps 754 mmHg 94%
    13:00 +14°C° 1 mm 4 mps 753 mmHg 93%
    14:00 +14°C° 0.7 mm 4 mps 754 mmHg 93%
    15:00 +14°C° 0.7 mm 3 mps 754 mmHg 92%
    16:00 +14°C° 0.7 mm 3 mps 754 mmHg 91%
    17:00 +15°C° 0.1 mm 2 mps 755 mmHg 92%
    18:00 +14°C° 0.1 mm 2 mps 755 mmHg 92%
    19:00 +14°C° 0.1 mm 1 mps 755 mmHg 93%
    20:00 +14°C° 0.1 mm 1 mps 756 mmHg 92%
    21:00 +13°C° 0.1 mm 2 mps 756 mmHg 92%
    22:00 +13°C° 0.1 mm 2 mps 756 mmHg 91%
    23:00 +12°C° 0.2 mm 3 mps 756 mmHg 90%
    Show more